Location: Barcelona
(41.3830°N, 2.1830°E)
Time: 21:08:49
(UTC+01:00)

ISS - Pass Details

Date: 28 March 2017
Orbit: 399 x 409 km, 51.6° (Epoch: 24 March)

Event Time Altitude Azimuth Distance (km) Brightness Sun altitude
Rises 20:53:45 0° 214° (SW) 2,295 0.3 -8.5°
Reaches altitude 10° 20:55:53 10° 206° (SSW) 1,443 -0.9 -8.9°
Maximum altitude 20:58:53 36° 138° (SE) 649 -3.2 -9.5°
Enters shadow 21:01:47 11° 70° (ENE) 1,399 -1.6 -10.0°
